Theta_e
296 297 297 297 296 295 293 293 293 293 295 295 291 291 294 292 284 283 291 294 294 297 299 299 298 298 297 298 298 299 299 299 298 298 297 297 297 298 298 299 299 299 300 300 301 303 305 307 309 314 316 318 320 320 317 319 321 321 321 321 321 320 319 320 319 320 320 320 322 322 322 321 321 320 320 319 319 320 321 321 321 318 317 317 315 314 314
294 296 296 297 295 292 291 290 291 293 294 293 293 294 295 296 292 295 295 294 293 295 295 296 296 297 297 296 297 298 297 296 296 295 295 295 295 296 296 297 298 298 298 299 299 301 303 304 305 308 311 313 316 318 319 321 320 322 321 321 321 321 320 320 320 320 320 320 321 321 321 321 320 320 320 319 319 319 319 319 319 318 315 315 313 314 316
290 294 296 295 293 290 287 289 290 291 293 294 293 291 291 296 295 296 294 292 290 295 297 296 297 297 296 295 294 294 295 295 294 293 293 293 294 295 296 296 296 297 297 298 298 299 300 302 303 305 308 311 312 313 316 318 320 322 322 319 321 320 320 320 320 320 320 320 320 319 319 319 318 319 320 319 319 318 317 317 318 317 315 313 313 316 315
284 293 293 292 290 289 286 285 287 288 290 290 291 287 289 292 293 294 293 289 288 293 295 294 294 293 293 292 293 292 293 293 293 292 292 292 292 293 294 294 294 295 295 296 297 298 299 300 303 304 306 309 310 310 312 315 316 318 319 320 319 320 320 320 320 319 318 318 317 317 318 318 319 319 320 319 319 319 318 319 317 316 314 313 316 315 313
283 291 293 291 288 286 284 283 285 288 290 293 295 294 294 292 295 290 288 289 293 293 294 291 290 291 291 291 292 292 292 292 292 291 291 292 292 292 293 293 293 294 294 295 296 297 297 298 301 304 306 307 307 309 310 313 315 315 316 317 319 319 320 319 319 318 317 316 316 316 316 316 317 317 317 318 318 318 318 318 319 318 318 318 316 314 312
281 290 291 290 282 277 280 288 292 291 289 291 289 290 294 295 295 292 296 294 294 293 291 290 288 289 289 290 292 293 292 291 291 291 291 292 292 293 293 293 293 294 294 295 296 297 297 298 299 304 304 305 306 308 309 311 312 314 315 315 316 318 318 318 318 318 317 316 315 315 316 316 316 316 317 316 317 318 318 318 318 318 317 315 314 312 310
282 284 285 281 274 276 287 293 292 293 294 294 292 290 292 293 293 292 290 291 291 291 291 290 290 290 291 292 292 292 293 293 292 290 291 291 292 292 292 293 293 294 294 294 295 295 296 298 298 300 301 302 304 304 306 308 309 311 314 315 315 315 316 316 317 317 316 316 315 316 316 316 316 316 316 317 318 317 318 318 317 316 315 314 313 311 310
283 281 281 276 277 286 291 291 291 293 294 291 293 290 292 293 293 292 289 290 290 290 290 290 291 291 291 292 293 293 293 293 292 291 291 291 292 292 292 293 293 294 294 294 294 295 297 297 298 298 299 300 301 301 303 303 305 307 309 312 313 314 314 315 315 315 314 315 316 316 314 316 316 316 316 317 317 316 317 318 318 318 317 316 314 312 311
280 281 282 280 285 285 285 286 287 289 285 286 286 284 287 293 293 292 290 290 290 290 291 291 291 291 291 288 289 293 293 293 293 293 293 292 292 293 293 294 293 295 295 295 295 296 296 296 296 297 298 299 299 299 300 301 301 302 304 305 308 312 313 315 316 316 315 314 314 315 316 316 315 316 316 316 316 316 317 317 318 318 317 317 316 314 311
284 281 280 280 280 276 280 286 291 294 295 292 293 290 286 293 294 294 292 290 290 290 291 291 291 292 287 283 285 290 293 294 294 294 294 294 294 294 294 294 294 294 295 295 296 295 295 295 296 297 297 298 298 298 298 299 299 300 301 302 305 305 306 309 311 315 316 315 314 314 314 315 315 315 316 315 315 316 317 317 317 317 318 317 316 314 312
283 282 281 280 278 278 284 286 290 293 294 294 293 288 283 290 294 295 293 291 292 291 291 292 293 290 283 282 285 289 292 293 295 294 294 294 294 294 294 294 294 294 294 295 295 295 295 295 296 297 297 297 297 296 297 298 298 298 299 300 302 303 304 306 306 308 312 315 315 315 315 315 314 314 314 316 317 317 317 318 317 317 316 314 313 312 312
283 283 281 276 281 279 284 288 290 293 295 295 289 281 280 289 293 296 295 293 293 292 291 290 289 286 282 282 285 292 291 292 292 293 292 293 294 294 295 295 295 295 295 295 294 294 294 294 296 297 297 296 296 296 296 296 296 296 297 299 301 303 303 304 305 306 307 309 314 315 315 313 312 314 313 316 317 317 317 317 316 316 315 316 315 315 314
282 281 279 280 281 285 288 288 290 293 294 291 283 279 282 291 292 292 291 290 291 291 289 289 283 285 288 288 289 291 291 291 292 292 293 293 294 293 294 295 296 295 295 295 294 294 295 295 296 296 297 296 295 295 296 296 296 297 298 299 300 301 302 302 303 303 305 305 305 308 313 314 312 312 313 315 315 315 314 314 314 314 315 314 313 312 312
281 280 279 278 280 285 288 290 291 291 289 281 279 286 293 292 289 290 290 289 290 289 288 287 286 287 289 290 290 290 291 291 291 291 292 292 293 294 296 296 295 295 295 295 295 296 296 296 296 296 296 296 296 296 295 295 296 298 299 299 299 299 300 301 302 302 302 303 304 304 304 305 311 313 313 314 313 313 313 313 313 312 312 311 311 310 310
284 282 279 278 274 283 289 289 289 290 284 283 288 290 291 292 290 290 289 289 289 289 287 288 288 289 289 290 290 291 291 291 290 291 291 291 292 293 294 295 296 296 295 295 295 296 296 296 296 296 296 295 295 296 295 296 298 299 299 298 298 298 299 300 300 301 300 300 301 302 302 302 301 301 303 307 309 312 313 313 312 311 311 311 311 309 306
278 276 275 275 281 285 290 289 282 286 289 293 294 291 288 290 290 289 288 289 289 289 288 288 289 289 290 290 291 291 291 291 291 291 292 292 293 294 295 296 296 296 296 296 295 296 296 297 297 296 296 295 295 295 296 298 299 299 299 298 298 298 298 298 299 299 299 299 299 300 301 301 299 298 297 298 299 299 301 307 311 311 308 310 309 306 305
280 278 281 285 287 288 291 290 290 291 294 294 292 290 289 288 289 291 289 289 291 291 290 290 290 289 290 290 291 290 290 290 290 290 291 292 293 294 295 295 296 296 295 295 295 296 296 297 296 296 296 295 295 295 296 298 298 299 300 299 298 298 298 298 298 299 298 297 297 298 299 299 298 297 296 296 296 297 298 299 298 298 299 303 307 306 305
288 289 289 289 289 289 290 291 293 292 293 294 292 291 288 290 291 292 290 291 292 292 293 290 290 290 291 291 291 290 290 291 291 292 292 292 294 295 295 296 296 297 296 295 295 295 296 297 297 297 296 296 295 296 298 298 299 299 299 299 298 298 298 298 298 299 297 296 296 296 297 298 297 296 295 295 295 295 296 296 297 297 297 298 299 299 298
284 279 287 287 287 289 289 290 292 294 294 292 293 291 291 291 292 293 293 293 293 294 294 292 291 291 292 291 291 291 291 291 292 292 291 292 293 294 294 295 296 296 296 295 294 294 294 295 296 296 296 297 297 297 297 299 299 299 298 298 298 298 299 299 299 299 297 295 294 294 295 296 297 296 294 294 294 294 294 295 296 295 295 296 296 296 295
282 282 286 288 290 290 291 291 290 290 292 293 294 294 294 294 295 295 295 295 294 294 293 293 292 291 292 291 290 291 291 292 292 292 292 292 293 294 295 295 296 294 294 294 294 294 294 295 296 296 296 296 297 297 297 298 298 299 297 296 297 297 298 299 298 300 298 291 293 293 293 293 293 294 295 294 293 292 292 293 295 295 295 294 294 295 294
285 288 289 289 290 290 290 291 292 292 292 292 292 293 293 293 292 292 293 294 293 292 291 291 290 290 291 291 292 292 292 292 292 291 291 291 292 292 293 294 294 294 294 294 294 294 294 295 295 295 295 296 297 297 298 298 298 296 296 295 295 296 296 296 297 297 298 296 295 294 293 292 292 291 292 294 293 292 291 291 293 296 295 295 295 294 294
282 283 285 289 283 282 288 290 291 292 292 292 292 292 292 292 292 292 291 291 292 292 292 291 291 290 289 290 290 290 290 290 290 290 290 291 291 291 292 293 293 294 294 293 293 293 293 295 295 295 295 295 296 297 298 298 297 296 296 295 294 294 295 295 295 297 297 296 295 293 293 292 292 292 288 289 291 292 291 290 289 290 291 293 294 294 293
281 287 289 290 289 288 289 290 292 293 293 293 291 291 291 292 292 292 291 290 290 290 291 291 291 289 289 289 290 289 289 289 290 290 290 291 291 291 292 291 292 293 293 294 293 293 293 294 294 294 294 294 295 296 296 297 296 295 295 295 294 294 294 294 292 295 296 295 294 293 293 292 292 291 292 291 289 288 289 289 289 289 289 289 291 292 294
288 290 290 291 290 288 290 292 293 293 294 293 292 292 292 292 292 292 291 291 289 289 290 291 291 291 290 290 289 287 288 289 289 290 290 290 290 291 292 291 291 293 293 292 292 291 292 293 293 293 293 293 294 294 295 295 295 294 294 293 293 293 293 294 294 293 295 295 295 293 293 293 292 291 290 290 291 290 289 289 290 289 289 289 289 290 290
287 292 292 292 291 292 293 293 294 294 294 294 292 292 292 292 292 292 291 291 291 291 289 288 289 289 288 289 289 288 288 288 289 290 290 290 289 289 289 289 290 291 292 292 291 291 292 293 293 293 292 292 293 294 295 295 295 293 293 292 293 293 293 294 294 294 294 294 294 295 294 292 293 291 290 289 289 288 291 290 289 290 289 290 289 289 289
292 292 293 293 293 292 293 293 292 292 292 293 292 292 294 295 293 292 290 290 289 290 289 288 288 289 289 288 289 288 288 288 288 290 290 289 290 290 289 289 290 290 292 291 291 291 292 292 292 292 291 292 292 293 294 295 295 294 293 293 292 291 292 293 293 293 293 293 293 293 294 293 292 291 290 290 289 289 289 289 291 291 291 291 290 289 290
292 293 292 290 289 289 290 289 287 290 291 291 291 292 292 293 293 292 291 290 289 289 289 289 289 289 289 289 289 289 288 289 288 289 289 289 289 289 290 290 290 290 292 291 291 291 292 292 292 292 292 293 293 294 294 294 294 294 293 293 292 290 289 290 292 292 292 291 292 292 293 293 292 292 293 291 290 289 288 288 289 289 289 292 292 290 291
292 292 292 287 286 287 289 290 291 291 291 291 290 290 291 292 291 290 290 289 289 289 289 289 290 289 289 290 289 289 289 288 289 288 289 289 289 290 290 290 291 291 293 292 291 291 292 291 291 291 291 293 294 294 295 294 293 293 293 292 292 290 290 291 292 291 291 291 291 292 292 291 292 291 291 291 290 290 290 290 290 290 289 290 289 291 291
291 291 292 291 291 291 292 293 292 292 292 292 292 292 291 290 290 290 290 289 289 289 289 289 290 290 290 289 289 289 289 289 288 288 288 289 290 290 291 291 290 290 293 293 293 292 292 292 291 291 291 292 293 293 294 294 293 293 292 292 290 289 290 289 290 290 292 291 291 291 289 289 290 291 290 289 290 290 289 289 290 289 289 289 290 289 289
290 291 291 291 291 291 290 289 289 291 292 293 292 292 292 290 289 288 288 289 289 289 290 290 290 290 290 288 287 287 288 288 288 289 290 289 290 290 290 290 290 289 291 292 291 291 291 292 292 291 291 293 293 293 293 293 293 294 293 292 291 289 289 289 290 291 291 291 290 288 288 290 291 290 290 290 290 288 288 288 288 288 288 287 289 286 286
290 291 292 292 291 290 289 289 290 290 291 291 292 292 292 291 289 288 288 288 289 289 289 290 290 289 289 288 288 289 290 289 288 288 287 288 289 289 289 288 287 287 289 290 290 290 290 291 292 292 293 293 293 294 294 294 293 293 292 291 290 286 287 287 288 290 290 289 289 290 290 290 290 288 287 287 287 287 287 288 288 287 286 287 286 286 286
291 291 292 291 290 289 289 290 290 289 289 290 290 290 289 289 288 288 288 288 288 289 288 289 289 289 289 289 289 289 289 288 287 287 287 286 287 287 287 286 287 287 289 290 290 290 290 291 291 293 295 295 295 294 295 295 294 293 292 291 292 291 289 288 288 288 288 287 289 289 287 287 288 288 287 286 287 286 286 285 286 286 285 286 286 287 286
289 288 288 289 289 288 287 288 289 288 288 288 289 289 289 289 289 289 289 289 289 289 289 289 288 288 289 289 289 288 287 286 286 285 285 285 285 286 286 286 287 288 288 289 290 291 290 291 293 294 294 295 295 295 294 294 294 293 292 291 291 292 289 289 289 290 290 289 288 288 286 286 286 286 285 286 285 286 285 286 286 286 286 286 285 285 286
288 287 288 290 289 287 287 288 288 288 289 291 291 291 290 290 289 289 289 289 290 290 289 289 289 289 289 288 287 286 285 284 282 282 282 283 283 284 284 284 283 285 286 288 289 289 290 291 292 292 294 294 295 294 293 293 293 293 292 292 291 291 291 291 291 290 289 288 288 288 288 286 287 285 286 286 286 285 285 285 285 285 284 284 285 285 287
292 291 292 292 292 292 292 291 291 291 291 290 290 290 290 289 289 288 288 289 289 289 290 290 290 289 288 287 286 285 284 283 281 281 281 280 281 281 280 281 283 283 284 285 287 288 290 291 292 292 293 294 293 292 292 291 291 292 292 291 291 290 290 290 290 289 289 289 288 288 286 285 285 286 287 286 286 285 286 285 285 285 285 285 286 286 286
292 291 291 291 292 291 291 290 291 291 291 290 290 290 290 290 289 290 288 288 290 291 290 289 289 288 287 286 284 283 281 281 280 280 279 279 279 280 278 279 280 280 281 284 287 288 290 289 286 288 289 291 291 291 290 289 291 290 290 291 291 291 292 290 291 290 289 288 286 285 284 285 285 285 285 286 286 286 286 285 284 285 285 286 285 285 285
293 292 291 291 291 291 290 290 290 290 290 290 290 289 289 288 288 290 291 291 291 290 289 288 287 286 285 285 285 286 285 283 282 281 280 279 279 281 281 279 280 280 281 281 282 287 288 288 287 287 289 292 292 292 289 285 288 288 289 290 290 292 291 292 293 293 291 288 286 285 286 285 284 285 285 286 285 284 284 283 284 285 286 285 285 285 285
292 292 291 290 291 290 290 290 290 290 290 289 289 289 289 290 290 290 290 290 290 290 289 288 288 288 288 287 288 288 286 286 285 282 280 279 279 281 281 281 281 280 280 280 284 286 287 286 285 287 291 291 289 289 287 283 284 286 289 290 290 291 291 291 291 290 291 290 287 287 286 286 286 285 285 285 284 284 284 283 284 285 285 285 286 286 286
291 291 291 291 291 289 291 291 291 290 291 290 289 289 289 290 290 290 290 289 289 290 290 289 288 287 288 288 288 287 287 286 284 282 280 280 281 282 281 281 282 283 284 284 283 285 288 286 286 291 292 292 291 290 288 288 288 288 290 291 292 291 291 292 291 291 290 289 290 289 288 286 285 284 284 285 283 284 284 285 285 286 287 285 285 285 287
290 290 291 291 290 290 290 289 290 290 290 291 290 289 291 289 290 290 290 289 288 288 290 290 287 286 287 288 287 287 287 286 283 281 282 281 281 281 281 283 285 284 282 286 285 287 287 288 290 291 291 291 291 289 288 288 288 288 290 290 290 290 290 291 291 291 291 289 289 288 288 287 285 285 285 285 284 285 284 284 284 285 285 285 286 287 287
290 290 290 290 290 289 290 290 290 290 289 290 290 291 291 292 291 290 289 288 289 289 287 288 289 288 287 288 288 288 287 286 286 284 282 282 281 279 281 282 283 284 285 283 284 286 286 289 288 287 289 290 290 290 288 287 288 289 291 291 290 290 289 289 289 288 289 289 289 289 288 286 285 285 285 285 285 285 284 285 285 284 285 285 285 286 286
290 290 290 291 290 290 290 291 291 290 291 291 291 291 291 291 291 291 290 290 289 289 289 290 289 288 288 288 287 288 287 287 287 286 287 285 283 282 281 281 284 286 285 287 287 287 286 287 287 288 287 288 288 288 289 288 289 290 291 291 292 291 290 290 289 289 289 289 290 290 289 289 287 286 285 284 285 285 285 286 287 287 287 286 286 285 285
292 291 290 290 290 290 291 290 290 290 289 290 291 292 292 291 292 292 290 290 290 290 290 289 288 288 288 287 288 289 288 288 287 287 287 288 288 286 286 287 288 288 287 287 288 287 288 288 288 287 288 288 289 287 287 288 289 290 290 290 290 289 290 290 289 289 288 288 289 290 290 288 287 285 285 284 284 285 285 286 286 287 287 287 287 286 285
291 292 291 291 290 291 290 290 290 290 291 292 293 293 293 292 292 292 291 291 290 291 290 290 289 289 288 287 287 287 287 288 288 288 287 286 288 289 290 289 287 286 286 287 287 287 287 289 289 289 288 288 288 287 287 288 290 290 290 289 288 287 288 288 288 288 288 287 287 287 288 288 288 288 288 286 286 284 284 284 285 286 287 287 286 285 285
292 291 291 291 291 290 289 290 290 290 291 293 294 293 292 291 292 291 291 291 292 291 291 290 290 290 289 289 288 289 290 290 288 288 287 284 285 286 289 287 286 285 286 286 287 285 286 287 290 288 287 287 287 287 288 288 288 288 289 288 288 287 287 287 287 287 288 286 286 286 286 286 287 286 287 286 286 285 285 285 285 285 285 285 285 285 286
293 293 291 289 291 292 292 293 294 293 292 292 293 291 292 292 292 291 291 291 291 291 292 292 292 291 292 291 291 292 292 291 292 292 291 289 286 287 288 286 286 285 285 286 285 285 286 287 287 287 287 287 287 287 288 288 287 287 288 289 288 287 287 286 287 288 287 287 287 286 286 286 286 286 286 286 286 285 285 286 286 285 286 286 286 285 287
293 292 291 290 291 291 293 292 291 291 290 291 290 291 293 293 293 293 293 292 292 293 293 293 293 293 293 293 292 290 289 290 291 291 292 290 290 288 287 287 286 286 286 285 283 286 284 285 286 286 286 286 286 288 288 287 288 287 288 288 288 288 287 288 289 289 289 290 288 287 287 287 287 287 286 288 286 286 285 285 285 285 285 286 286 286 286
293 292 292 291 291 292 292 291 290 290 291 291 291 291 292 293 294 295 294 293 292 293 292 292 293 294 294 294 293 293 292 290 288 288 291 291 289 288 286 285 286 285 286 287 288 287 286 286 286 286 286 286 286 287 287 287 287 287 287 288 288 289 288 287 288 288 288 287 287 288 287 286 285 286 285 286 287 286 286 285 285 285 285 285 285 284 284
293 293 293 292 292 291 290 290 289 289 289 291 291 291 292 293 294 293 292 292 292 292 292 292 292 293 294 293 294 293 293 292 290 288 289 290 288 287 287 287 286 286 285 285 288 285 286 286 286 286 286 286 285 287 287 287 288 287 286 287 287 287 286 286 287 288 288 288 287 286 286 287 287 286 286 286 285 285 286 286 286 285 285 285 286 284 285
293 292 292 292 290 289 289 288 287 289 292 292 292 292 293 293 289 290 290 290 292 291 291 291 291 292 292 292 292 292 292 293 292 292 291 291 292 290 289 287 286 285 286 285 289 286 285 286 285 286 285 284 286 287 287 287 288 287 288 287 286 285 286 286 288 288 288 287 288 286 287 287 287 287 287 285 285 286 286 287 287 287 288 286 286 285 284
291 291 290 290 290 293 292 291 290 291 291 291 291 289 290 288 289 289 290 291 290 290 290 290 290 290 291 292 292 293 294 293 292 292 291 291 290 289 288 287 286 286 286 285 286 285 284 283 283 284 285 286 286 287 285 286 286 286 286 286 287 286 286 286 286 286 287 285 284 285 285 285 286 287 286 286 286 287 287 287 287 286 287 285 285 286 285
293 293 292 292 292 293 294 293 292 292 292 289 290 289 288 289 290 289 289 289 290 288 288 288 288 291 291 291 291 292 293 293 291 290 289 288 288 288 288 286 286 285 286 285 286 286 285 285 285 285 285 285 285 285 286 286 286 286 287 286 286 288 287 286 286 285 285 286 287 286 285 285 285 285 284 284 285 285 285 286 286 287 286 285 284 285 284
Wind_Speed
1 1 5 6 7 8 9 10 9 11 8 10 7 2 2 5 3 4 1 6 8 9 10 11 10 9 10 11 11 11 11 11 12 12 12 12 12 12 13 13 12 13 12 11 13 14 12 13 13 12 11 9 6 3 2 3 4 5 4 4 4 2 1 5 5 5 3 2 5 4 6 7 7 7 6 6 5 5 6 5 5 5 5 5 5 6 8
1 4 7 7 10 7 11 8 9 8 8 7 5 2 1 1 6 4 7 14 13 10 10 11 11 9 10 10 10 12 14 13 11 11 12 12 12 12 12 13 12 11 11 11 12 11 14 12 12 11 10 10 9 9 7 4 3 5 3 4 3 4 4 5 7 5 1 2 4 3 6 7 6 5 5 6 6 5 5 5 5 5 4 4 5 10 11
1 5 8 9 10 8 8 10 10 11 8 5 6 3 9 5 8 9 8 12 11 7 9 11 10 10 9 12 15 13 12 11 11 11 11 10 10 11 11 11 11 10 11 11 11 12 12 11 11 10 9 8 9 11 10 9 7 4 1 2 4 5 6 6 7 4 2 3 5 6 6 6 5 5 5 5 6 6 5 4 5 5 5 4 7 9 10
0 3 8 9 10 12 12 10 13 13 10 7 6 4 3 4 5 9 10 7 6 8 9 11 12 14 14 13 12 12 10 11 10 10 10 10 10 10 10 10 10 11 11 11 12 11 10 11 12 11 9 9 10 10 9 9 8 9 6 2 5 7 7 8 8 7 4 7 6 7 8 8 8 7 7 7 6 5 4 4 3 5 6 6 10 10 9
1 3 9 9 6 5 5 5 6 10 6 7 4 5 7 5 4 5 5 6 7 8 8 13 13 14 14 13 11 9 11 11 11 11 10 10 10 10 10 11 11 11 10 9 10 11 10 11 10 10 9 10 10 9 9 8 9 9 8 7 5 7 7 8 7 6 6 5 7 8 7 8 8 8 8 9 7 8 6 5 7 8 7 11 9 8 11
2 2 5 4 2 2 1 2 5 5 5 7 8 5 7 8 7 4 6 9 10 11 11 14 13 15 13 11 11 10 9 8 9 10 10 10 9 9 9 10 11 9 9 9 8 10 11 12 10 9 9 9 9 9 9 10 11 10 10 10 8 7 8 7 5 4 5 7 7 7 6 7 8 9 10 8 7 6 7 8 9 8 10 11 10 9 10
3 2 0 4 1 1 2 1 4 5 5 5 10 9 11 9 13 15 14 13 12 12 12 13 15 14 13 12 13 13 12 9 8 9 10 10 9 9 9 10 10 10 10 10 11 13 13 11 11 11 13 11 8 11 10 11 10 10 10 10 9 7 6 6 4 4 5 6 6 5 6 8 8 8 8 8 8 7 8 8 8 8 9 10 9 8 9
2 2 1 2 2 1 1 2 5 5 2 8 2 11 9 7 8 11 13 12 12 11 12 12 12 14 13 12 13 12 12 10 9 9 9 9 9 9 8 8 8 9 9 10 10 10 10 11 10 11 12 11 11 12 12 11 10 10 10 11 10 10 8 5 4 4 5 6 7 5 5 6 8 6 5 7 7 6 8 8 7 8 7 8 9 9 8
4 2 4 6 5 2 7 4 6 6 2 5 4 6 6 8 5 8 12 11 10 10 9 11 11 11 10 14 11 9 9 9 9 9 8 8 8 7 7 7 7 6 7 9 9 9 11 12 13 13 12 12 11 12 14 13 12 12 12 13 11 10 10 8 4 3 5 5 6 6 5 7 8 7 5 6 5 5 7 7 7 7 6 7 7 8 9
6 7 6 4 2 2 2 1 4 2 1 2 3 1 4 6 3 6 10 12 10 10 10 9 10 5 11 11 8 8 6 6 6 6 7 6 7 7 6 5 7 8 8 8 10 11 12 13 13 11 12 11 11 13 13 13 12 13 13 12 11 11 11 10 10 7 3 4 6 6 5 6 6 5 5 4 4 5 6 7 7 6 6 7 6 7 9
5 5 6 3 3 2 1 6 7 5 1 2 2 1 4 5 7 7 7 9 8 8 7 7 2 4 7 6 3 5 7 5 2 3 3 5 6 6 7 7 8 9 9 8 10 12 13 13 11 11 12 13 13 13 13 12 12 13 13 12 10 10 11 10 12 11 8 5 5 7 8 7 6 5 3 5 5 5 6 7 7 7 7 8 6 7 7
2 4 4 3 2 2 3 7 7 6 2 3 1 3 2 5 8 4 6 8 6 5 5 9 9 6 10 7 2 3 6 8 8 5 5 5 3 4 5 6 6 6 7 11 14 14 13 10 9 9 9 12 13 13 12 11 13 13 12 11 9 9 8 9 11 12 10 9 7 6 7 6 5 4 3 4 6 7 6 6 7 7 7 7 8 7 6
6 9 4 5 3 2 4 7 9 3 2 1 2 2 3 2 6 6 9 8 6 6 7 8 9 8 8 7 5 6 8 10 11 11 9 6 6 7 4 3 4 7 8 9 9 9 7 8 8 8 9 12 13 13 12 13 14 11 10 9 10 8 9 10 10 10 8 8 8 7 5 5 4 4 5 5 6 6 6 6 6 7 7 7 8 7 7
4 3 5 4 3 1 7 8 4 2 1 2 3 0 2 4 8 8 9 11 9 12 10 11 11 9 8 7 8 10 10 10 10 11 11 11 11 8 6 7 4 5 6 7 7 7 7 7 7 8 9 12 11 12 13 14 12 10 10 9 9 9 10 11 11 12 11 10 9 8 9 7 5 5 4 5 4 5 4 5 7 7 6 6 7 7 6
1 3 5 3 2 1 8 12 3 5 2 2 1 4 9 8 8 10 10 10 8 13 13 12 13 12 10 9 9 9 10 10 10 10 10 11 10 10 9 8 9 7 6 6 6 5 3 4 6 7 9 10 9 10 12 10 9 10 9 9 9 10 10 10 11 11 11 12 11 10 10 11 10 9 7 7 6 5 5 6 6 6 6 6 7 8 7
3 3 3 1 2 3 9 6 4 2 3 2 3 6 8 7 7 9 10 10 8 11 15 13 12 10 10 8 9 9 8 8 7 8 8 9 10 11 11 9 8 8 8 7 6 4 4 4 5 7 9 9 9 10 9 6 7 9 10 10 10 10 10 10 10 10 9 10 10 10 11 10 11 9 8 8 9 8 7 5 5 6 6 7 8 8 8
1 2 3 3 4 4 5 7 5 6 9 9 9 9 9 9 9 8 12 11 8 9 13 13 11 10 8 9 7 8 7 6 6 7 5 5 7 8 9 11 10 9 9 9 8 8 7 6 6 7 8 10 10 10 5 5 6 7 8 10 10 10 10 10 10 9 9 9 10 10 9 10 10 9 10 9 10 8 9 10 9 8 7 5 6 8 8
11 11 8 6 6 6 7 7 7 9 11 10 9 10 11 9 9 7 10 10 10 8 7 11 10 9 8 7 6 6 5 4 4 3 3 3 4 5 6 5 7 8 8 8 8 9 11 11 9 6 6 8 9 3 2 4 5 5 7 8 9 9 9 9 9 9 10 10 10 10 9 9 9 8 8 8 8 8 8 8 8 9 8 9 9 8 8
1 6 3 6 7 8 10 11 11 11 10 10 9 10 11 10 10 10 9 9 9 8 7 8 9 9 7 7 5 3 2 2 2 3 3 3 3 4 5 4 3 5 5 7 8 9 10 9 10 10 8 5 4 2 3 3 4 5 7 7 7 7 8 7 7 7 8 8 8 9 10 9 8 8 8 7 8 9 8 7 8 8 9 8 8 8 8
7 5 6 9 10 9 9 7 9 11 11 11 9 8 8 8 7 7 8 8 8 6 8 7 8 8 6 6 6 5 4 2 2 3 4 3 2 3 4 4 5 4 5 5 6 7 8 8 8 9 9 9 7 4 3 4 4 5 5 6 6 5 6 6 6 5 7 9 10 8 9 9 8 8 8 8 9 8 7 6 7 8 8 8 7 6 6
9 11 10 11 13 12 11 11 10 8 9 11 12 11 11 10 10 8 6 4 6 8 10 9 9 9 6 4 3 3 2 1 2 5 6 5 4 3 3 3 4 5 4 7 8 8 6 6 7 8 9 8 9 8 7 8 5 4 5 5 4 5 5 6 7 6 6 6 6 7 7 8 8 7 5 6 7 6 5 4 4 7 8 7 6 5 6
5 3 7 6 7 7 8 9 10 10 10 12 12 11 11 10 9 8 11 11 9 9 8 8 6 6 4 3 3 3 4 5 6 5 4 5 6 5 5 5 3 5 9 10 9 7 6 4 6 7 8 8 8 8 7 6 7 8 5 4 5 5 5 5 4 5 5 5 5 5 6 5 6 7 10 12 7 6 5 9 13 12 7 6 5 6 7
7 9 11 10 11 12 10 11 11 11 10 11 11 11 11 10 9 8 9 9 7 7 6 4 5 4 5 4 3 5 6 6 5 5 7 4 5 6 6 8 9 8 9 8 6 5 6 6 7 9 9 9 9 10 8 6 6 6 6 6 6 6 6 5 4 3 5 5 4 5 5 5 5 6 5 6 10 11 9 9 10 12 12 9 8 7 7
12 11 10 8 9 11 12 12 12 10 9 10 11 9 8 8 7 6 6 5 5 4 4 3 4 4 3 3 4 4 5 6 7 8 7 8 8 6 6 6 6 7 7 6 4 3 4 7 8 8 7 7 8 9 9 6 4 6 6 6 6 6 6 6 6 6 6 4 5 5 4 4 5 4 5 6 6 8 10 10 10 11 11 11 11 11 10
10 10 9 9 11 12 10 11 11 11 10 10 10 10 9 8 7 7 7 6 4 4 4 5 4 3 4 3 4 4 4 3 4 5 6 7 7 7 7 7 6 4 4 3 4 4 6 7 7 6 4 5 6 7 8 7 4 4 4 4 7 7 7 6 5 7 6 7 6 2 4 4 3 4 5 6 6 5 7 8 10 10 11 12 11 10 10
12 12 11 10 11 10 8 8 7 7 8 8 8 7 9 9 9 7 7 6 5 5 6 4 3 1 4 4 4 3 4 3 3 3 5 5 5 6 6 6 5 4 3 4 5 6 6 5 5 5 5 5 5 7 7 7 8 5 4 6 6 7 7 7 7 6 6 6 6 5 4 3 3 3 2 4 5 5 6 6 7 8 7 7 7 6 6
12 12 13 11 10 8 7 8 7 8 8 7 8 8 9 10 12 9 8 7 7 7 6 6 5 4 3 4 3 1 2 0 2 3 4 5 5 4 2 4 4 4 2 4 5 6 7 5 5 6 6 5 6 6 6 6 6 8 7 7 6 8 12 9 6 6 6 5 6 6 5 4 3 5 5 4 5 5 6 6 5 5 3 5 6 6 7
12 11 9 10 9 8 7 8 9 8 8 7 7 7 8 8 9 9 8 7 5 5 5 6 5 4 3 2 3 2 2 1 1 3 5 5 6 6 6 7 6 3 3 5 5 5 5 5 5 5 6 6 6 6 7 6 4 4 6 5 6 5 5 7 6 6 6 5 6 6 6 6 6 6 6 5 4 3 4 5 5 5 2 1 1 4 6
4 5 6 6 8 9 10 10 9 8 8 7 8 7 7 4 10 9 9 8 8 6 4 4 4 4 5 4 4 3 2 2 4 6 4 5 6 6 6 6 7 8 6 7 6 5 5 6 6 5 6 5 6 6 7 7 5 3 3 4 4 4 5 4 5 5 4 4 6 5 5 6 6 7 6 5 5 6 6 5 5 3 2 1 3 5 5
9 8 8 8 7 6 5 4 6 8 9 8 8 8 7 5 7 5 4 5 5 4 4 4 4 6 7 6 5 5 5 5 5 6 7 5 5 6 5 5 6 6 5 6 5 5 5 5 6 5 4 5 6 7 7 6 7 6 5 4 3 3 3 3 4 4 3 4 6 7 5 6 6 6 6 6 7 7 8 8 7 5 6 2 4 6 6
6 7 8 7 8 5 6 6 7 8 7 6 6 7 7 7 7 6 5 6 6 7 6 7 7 7 6 5 4 6 7 8 8 7 5 6 5 5 5 5 6 5 4 3 4 4 4 5 4 3 3 3 4 5 6 6 6 5 4 4 4 5 7 8 6 5 5 6 7 7 6 7 7 7 8 7 6 6 7 8 7 5 3 5 6 6 5
9 9 9 7 6 6 6 6 7 5 5 4 6 6 5 6 6 6 6 5 5 4 6 8 7 6 5 6 9 8 8 7 6 6 5 5 5 5 4 4 4 4 4 3 3 3 4 4 3 1 1 1 2 3 4 6 7 6 5 5 6 7 6 6 4 3 4 7 7 7 6 7 7 7 7 6 6 4 5 7 7 5 6 6 6 6 5
6 6 6 7 5 5 5 4 6 5 5 6 6 6 5 5 4 5 5 4 5 6 7 6 5 5 6 8 8 8 6 5 5 5 5 4 4 3 4 4 4 4 4 3 2 2 3 4 3 3 4 3 3 4 5 5 5 5 5 6 6 7 7 4 7 5 6 7 6 5 4 5 5 5 4 4 4 6 7 7 7 6 5 5 5 4 5
5 4 5 5 6 7 6 6 5 5 4 4 6 8 8 7 6 5 4 5 7 7 6 5 5 6 7 6 5 5 5 6 5 4 4 3 2 2 3 4 3 3 3 3 4 2 3 3 3 3 3 4 5 4 4 5 5 5 5 5 6 6 6 4 6 6 6 5 4 4 4 4 6 5 3 1 4 6 6 5 6 5 4 4 4 6 7
8 6 6 6 6 6 5 6 6 5 6 7 7 6 6 6 5 4 5 5 3 5 5 5 7 7 7 5 5 4 5 5 4 4 3 2 0 0 2 3 4 4 4 4 3 4 1 4 3 3 3 4 4 3 3 4 3 5 6 6 6 5 7 3 3 5 4 4 3 4 3 3 3 5 6 4 4 5 6 5 6 6 6 5 4 6 6
6 6 6 7 8 8 8 7 7 7 7 8 7 6 5 5 5 4 4 5 8 8 7 6 6 5 5 4 4 5 5 4 4 4 4 3 1 1 3 2 2 2 2 4 5 3 1 3 4 4 3 5 3 3 3 3 4 3 4 5 6 6 7 2 2 2 2 4 5 3 2 2 3 5 2 5 5 5 6 5 3 6 6 5 5 6 4
8 9 7 7 8 9 9 7 6 6 6 5 5 5 6 5 4 2 4 7 6 6 5 5 5 4 3 4 5 5 5 5 4 4 4 3 2 1 0 1 0 0 1 1 4 1 4 2 2 2 2 4 3 2 2 4 3 3 3 5 5 5 6 2 1 1 2 2 4 3 1 3 4 5 4 5 4 3 3 4 3 2 4 6 5 6 5
8 8 7 6 5 6 6 5 5 5 7 6 6 5 4 2 2 4 6 5 5 5 4 4 5 6 4 3 7 7 5 4 4 4 4 4 3 1 0 1 2 1 1 2 1 4 3 3 4 1 2 3 2 1 1 1 2 3 3 5 5 5 6 4 4 4 3 2 2 3 2 1 1 2 2 2 3 2 2 2 3 3 3 4 6 5 5
8 7 6 6 6 5 5 5 4 4 7 8 5 4 2 2 1 4 6 5 4 2 2 3 2 3 6 8 6 5 5 5 5 5 5 5 4 4 4 4 4 4 2 2 2 4 4 2 2 0 4 4 3 2 1 1 3 3 4 3 4 6 5 5 5 6 4 3 5 4 2 1 2 2 2 1 1 0 1 1 1 3 5 4 6 5 4
6 5 7 7 6 4 5 5 5 5 4 5 6 4 3 2 1 3 6 5 2 5 3 0 2 4 5 6 4 4 4 5 5 5 6 5 5 4 3 4 5 4 4 4 3 6 5 6 2 1 4 4 4 3 3 2 3 3 4 3 3 5 6 6 6 6 6 6 3 3 3 3 2 3 2 0 0 1 1 2 1 0 1 4 4 4 6
7 6 5 6 6 5 5 5 5 5 3 3 5 4 3 2 1 5 6 4 3 4 2 2 3 3 4 7 8 7 6 4 5 6 4 4 3 3 3 4 4 3 4 3 4 4 4 4 2 3 5 5 5 5 5 3 2 2 5 4 3 3 4 5 5 4 4 5 6 3 2 1 2 3 3 3 1 1 3 5 3 3 3 5 5 4 5
6 5 5 5 5 6 5 5 6 5 5 5 5 5 3 1 4 1 7 7 4 4 4 4 6 4 4 3 5 7 6 6 6 5 5 6 7 5 4 5 2 5 6 6 6 5 3 3 3 3 3 4 4 6 7 4 3 3 4 3 1 1 3 3 3 4 4 4 6 6 6 4 3 3 3 3 3 2 3 2 3 4 4 5 5 4 5
6 6 4 4 5 5 5 6 5 4 5 5 5 5 5 4 0 1 3 5 6 4 2 4 4 4 4 2 1 1 4 8 6 6 5 6 5 7 8 6 5 6 9 6 5 5 5 4 4 4 3 4 5 6 6 4 3 3 3 2 2 2 1 0 1 2 2 3 3 3 3 4 4 3 2 3 3 3 2 3 4 2 2 4 6 5 4
5 5 4 4 5 5 4 3 4 4 3 5 5 5 5 5 4 2 1 2 2 2 4 6 4 5 4 4 3 3 3 2 4 5 1 0 2 2 6 7 6 7 10 6 6 6 5 5 6 7 8 8 8 7 4 3 3 3 3 3 3 2 1 0 0 1 1 0 1 2 2 2 1 1 0 2 5 4 2 2 2 3 4 3 5 6 5
4 4 5 4 5 4 3 3 4 4 3 4 4 4 5 4 4 4 1 1 1 2 1 2 3 3 4 3 4 2 0 3 3 1 1 5 7 4 4 6 7 6 8 8 6 4 5 7 10 11 8 9 9 7 4 3 3 3 2 2 4 4 4 4 4 4 4 3 3 3 2 2 2 2 2 2 2 2 2 1 2 3 3 4 2 3 4
1 3 5 7 4 2 3 2 3 4 4 3 3 4 4 5 4 4 4 4 4 3 1 0 0 1 1 3 1 1 1 2 2 0 2 6 9 6 7 7 7 6 9 9 4 2 1 4 9 11 9 9 8 7 4 6 4 3 2 2 2 3 4 4 5 4 4 5 7 4 4 4 3 2 1 1 1 1 2 2 0 2 1 1 2 2 7
2 5 5 4 2 1 1 3 4 4 3 2 1 2 3 4 4 3 3 3 2 2 2 2 2 1 1 1 1 2 2 3 4 3 1 2 8 8 9 9 9 10 7 6 4 4 4 4 6 8 8 8 7 5 4 3 4 5 4 4 3 1 1 1 1 2 4 6 7 6 6 3 4 3 2 3 4 5 3 3 2 1 1 0 2 1 6
2 3 5 5 4 4 3 4 3 1 0 1 1 2 1 4 4 4 2 3 3 3 3 3 2 2 1 0 2 3 4 3 1 4 4 4 7 6 7 6 7 8 7 5 6 6 9 9 9 8 8 7 6 4 3 3 5 6 3 4 3 2 2 3 2 0 2 4 3 5 4 4 4 4 4 5 5 4 4 3 2 1 1 1 1 2 4
4 3 5 5 4 4 3 2 4 4 5 5 5 5 4 4 2 4 4 3 3 3 3 3 4 4 4 4 3 3 3 4 4 2 2 6 7 6 6 7 10 10 7 6 5 4 6 8 8 8 8 7 5 5 4 4 5 5 4 5 5 4 4 2 2 0 1 4 2 3 4 5 5 5 5 5 5 5 4 4 4 2 1 2 2 2 6
4 3 3 3 4 4 3 2 3 4 5 4 3 4 3 5 4 3 2 2 4 4 3 3 3 3 4 3 4 4 3 3 4 4 4 4 7 7 7 7 6 6 7 5 4 5 5 7 8 8 6 5 5 5 5 5 5 4 5 4 4 4 4 3 4 4 3 4 4 3 5 6 7 7 6 5 5 5 5 5 6 5 5 4 1 2 3
5 4 4 4 3 5 5 5 5 2 3 4 2 3 5 4 2 0 1 1 3 3 1 1 2 3 2 1 1 1 2 2 1 2 1 3 6 7 6 6 7 7 6 4 4 5 6 5 5 5 6 6 5 5 5 5 4 5 4 5 5 4 4 4 4 3 3 3 4 3 3 3 5 5 6 7 6 6 6 5 5 5 5 3 4 4 4
5 4 4 3 4 4 4 5 4 2 2 2 1 1 2 2 1 3 4 2 1 1 1 1 2 1 3 2 1 0 1 0 1 2 3 3 4 4 5 7 6 6 7 5 4 5 6 7 6 6 6 6 7 6 6 7 6 5 4 3 4 6 6 5 4 3 3 3 2 2 2 4 3 2 2 3 3 2 4 5 6 6 5 4 3 2 2
Wind_Direction
87 73 70 87 85 72 74 60 38 25 3 40 60 350 8 82 119 220 89 98 99 106 100 96 76 76 78 77 74 72 73 68 62 57 50 42 35 31 32 31 26 21 14 1 358 4 6 8 12 13 14 15 18 27 42 40 50 38 66 93 111 99 63 83 82 77 6 319 75 90 131 124 123 127 125 129 127 127 132 135 140 144 138 132 131 113 93
56 74 79 80 97 82 58 47 45 27 22 17 28 95 275 126 104 88 89 84 73 61 70 74 75 64 68 68 63 61 60 59 58 56 52 44 35 32 30 27 24 18 12 5 359 1 10 5 9 12 11 8 10 16 18 19 34 65 88 127 128 101 71 73 96 88 96 313 87 86 110 121 122 119 127 133 126 129 133 136 136 136 147 126 109 103 102
66 98 86 80 90 93 75 38 32 31 19 8 22 31 5 73 106 133 119 98 90 72 73 79 72 72 70 63 58 59 59 60 59 58 55 49 44 36 33 28 20 14 10 5 3 5 357 2 6 10 3 8 18 20 18 21 15 29 81 74 111 94 86 71 82 65 52 71 69 72 88 89 85 83 113 125 126 137 147 135 139 141 150 121 93 105 101
255 101 102 106 101 90 80 37 16 11 13 31 4 21 342 309 150 140 118 91 106 94 78 70 62 60 56 58 60 58 57 58 60 61 59 57 51 45 40 34 28 21 15 7 6 357 344 348 6 11 10 17 29 24 20 23 28 30 30 70 102 101 86 76 78 79 48 55 55 73 79 83 83 82 79 79 78 79 75 62 95 130 136 96 101 105 93
48 119 121 131 116 82 41 11 346 335 331 15 61 65 54 19 349 100 121 122 107 105 92 80 65 66 61 56 47 60 64 61 61 61 62 58 52 41 35 33 31 24 15 6 4 0 357 356 350 358 7 27 28 21 22 22 38 29 42 48 66 79 81 83 92 94 76 74 68 50 62 81 86 80 76 71 68 71 68 78 73 65 73 89 91 91 97
158 196 159 139 94 136 146 246 328 336 332 17 39 8 62 72 62 58 58 94 98 87 80 84 82 72 62 59 56 52 54 61 61 61 60 54 45 41 36 37 34 22 14 9 8 11 8 358 349 339 9 24 29 29 30 39 40 35 36 41 40 60 77 82 90 73 74 70 64 78 64 66 74 77 75 69 73 77 76 68 71 74 80 88 91 88 92
180 225 229 61 106 186 206 166 5 354 335 28 84 52 34 51 81 84 73 67 76 86 90 94 90 88 83 72 65 55 50 53 56 60 57 51 46 38 32 31 30 26 24 18 18 19 14 4 3 4 16 3 14 37 33 42 40 43 41 44 39 43 66 71 73 92 73 69 69 63 77 74 53 65 72 67 62 58 67 68 70 76 89 92 92 96 94
90 75 103 148 130 206 164 165 20 356 40 4 352 57 43 45 58 91 98 105 104 105 105 101 101 96 92 77 61 55 51 49 53 55 54 52 47 43 30 32 34 28 22 23 23 22 14 13 9 16 19 10 23 30 24 27 32 37 43 47 39 37 42 64 84 74 85 94 87 69 68 80 81 44 70 83 82 74 73 70 70 76 71 88 93 91 91
131 117 61 85 127 122 19 1 11 16 -0 350 350 80 37 42 68 102 114 114 115 114 115 121 125 125 97 68 48 30 50 55 53 56 58 55 58 54 39 32 38 36 34 31 24 26 28 25 25 22 18 18 24 31 35 28 24 25 38 42 37 34 35 29 38 92 106 97 99 90 71 80 83 90 58 60 66 72 73 72 75 65 69 72 83 92 87
119 123 118 114 177 165 161 21 315 334 103 212 245 267 93 14 60 118 120 124 132 131 143 155 158 169 64 51 34 356 11 47 64 68 75 70 68 60 48 39 41 40 38 41 34 38 32 29 26 25 23 23 26 33 30 24 25 30 31 33 35 38 37 27 28 23 54 100 105 108 100 91 97 86 88 75 75 79 90 90 81 79 83 77 72 90 96
111 122 130 142 154 106 46 325 331 326 355 327 314 160 61 337 349 126 124 123 136 150 165 175 235 61 75 89 39 330 349 1 31 84 90 96 83 77 66 48 42 38 37 45 48 41 38 26 15 25 29 28 31 32 27 23 22 25 24 16 19 35 38 32 39 31 23 44 74 87 82 78 79 80 86 105 94 81 89 91 90 90 86 87 79 74 82
336 122 88 110 71 137 1 323 313 316 336 278 266 158 142 352 351 49 116 125 121 94 83 81 52 87 120 121 73 330 41 45 26 32 68 75 95 111 93 74 66 54 41 46 46 42 36 21 9 18 37 39 38 32 24 21 27 22 11 6 5 19 38 44 49 38 30 28 39 66 88 85 73 79 82 86 83 92 83 87 95 96 93 89 88 78 79
96 93 87 92 101 84 343 317 305 300 268 264 153 214 102 7 36 49 76 74 78 87 71 80 86 39 74 95 91 60 49 44 40 32 27 35 54 67 87 127 101 64 54 57 59 57 47 33 24 21 39 47 41 35 26 22 20 10 3 3 12 18 29 35 41 50 35 34 38 45 53 89 97 79 78 92 98 97 97 93 97 89 89 91 89 85 80
16 90 88 93 86 91 320 317 297 281 222 139 142 204 248 96 76 57 72 82 79 84 77 92 94 99 88 89 76 64 54 51 44 36 28 26 27 25 48 52 63 85 73 67 65 61 55 48 40 36 41 53 44 40 31 21 7 357 5 5 11 18 28 33 33 31 31 24 28 35 40 52 69 76 73 67 74 84 89 98 98 92 90 91 92 88 72
339 21 110 108 108 34 354 321 322 355 104 124 112 66 64 73 79 82 72 83 86 100 93 90 97 97 89 82 76 69 62 54 46 36 28 24 23 22 24 43 39 43 63 64 62 68 67 65 55 54 53 53 51 50 41 11 3 5 2 7 17 27 28 30 34 33 27 35 37 29 34 41 51 46 33 40 33 39 78 94 90 93 98 103 102 91 79
95 49 70 111 346 356 351 8 94 11 48 104 114 111 88 71 79 90 90 74 88 98 106 107 101 98 100 88 79 77 72 70 62 50 38 29 25 26 29 30 32 34 47 51 58 59 62 66 67 65 61 57 49 50 38 359 6 12 13 13 18 26 27 26 30 35 32 38 43 36 37 43 53 47 43 49 52 44 41 58 91 113 120 116 106 101 94
75 99 102 70 72 48 22 47 58 60 64 79 86 92 94 99 84 92 97 102 96 97 105 105 107 103 95 97 95 93 92 89 81 72 59 48 40 36 33 30 21 29 36 41 43 45 42 49 50 53 59 62 52 48 17 10 12 23 22 17 20 25 20 20 26 32 34 38 39 41 40 40 44 38 34 39 50 31 45 52 56 54 36 46 88 103 96
84 70 81 103 73 70 67 50 49 68 81 82 92 99 98 82 93 90 102 108 106 100 97 106 104 106 116 109 106 111 116 114 111 110 103 70 62 56 53 53 37 26 25 32 39 44 40 33 34 39 46 58 65 72 23 23 27 21 30 29 21 15 14 20 23 26 34 32 34 35 41 46 51 48 47 46 52 41 46 51 52 55 49 58 67 74 78
117 64 46 84 90 85 75 70 66 70 75 84 89 93 95 104 108 106 103 108 110 107 106 99 106 105 104 103 104 104 115 124 149 148 130 120 96 75 60 46 51 44 40 40 37 41 45 32 27 22 26 34 66 70 59 50 53 52 39 32 25 15 7 4 11 30 40 37 36 34 29 31 43 49 46 46 50 48 48 51 59 59 55 59 66 70 74
73 101 93 92 90 82 75 69 74 75 74 75 75 86 97 100 99 99 110 114 113 121 106 105 102 100 96 96 94 93 98 108 130 138 151 164 146 117 101 75 65 57 55 58 52 48 47 36 30 26 22 16 10 12 6 18 40 51 54 44 37 20 15 4 8 25 53 49 50 44 36 35 32 32 41 49 53 47 40 38 64 68 69 64 64 68 73
97 103 102 107 96 83 81 83 77 76 85 89 85 85 86 87 85 79 68 71 98 101 104 105 106 106 108 107 127 133 152 158 89 75 74 72 65 52 71 111 107 99 78 60 49 45 45 50 44 30 19 13 7 12 24 28 25 48 58 64 54 28 14 19 16 30 63 66 67 65 62 56 51 36 23 33 60 66 32 5 40 89 93 80 79 80 85
100 114 142 155 112 111 103 95 97 97 94 95 95 94 92 92 92 87 85 77 71 70 70 77 79 88 97 92 78 75 58 46 40 37 63 85 73 48 31 39 45 72 70 65 52 31 17 28 59 44 25 11 6 8 14 27 36 39 20 29 48 38 33 31 15 39 78 87 79 74 74 78 79 67 49 53 45 70 58 24 38 41 70 103 114 102 86
101 92 86 87 98 103 110 118 118 112 107 104 103 102 103 102 101 99 97 96 89 91 100 102 101 95 95 98 70 51 41 37 32 37 23 37 78 65 43 33 35 63 65 65 56 29 15 34 52 43 26 9 1 354 360 18 33 38 43 40 23 4 4 357 355 16 81 112 107 98 96 91 89 88 79 60 62 59 60 49 41 39 46 59 80 89 103
111 115 118 120 116 119 128 126 126 125 122 113 112 113 108 106 104 103 92 93 104 99 103 107 115 118 95 64 68 68 55 49 45 43 42 43 42 42 41 39 49 71 70 58 50 21 17 61 62 47 28 5 355 351 345 352 30 41 44 50 32 7 359 359 2 10 17 64 119 119 95 93 81 79 79 72 45 43 51 52 48 45 42 42 49 59 63
119 126 122 119 120 123 129 131 130 132 137 138 133 136 139 137 138 135 129 127 125 127 97 76 70 93 104 88 80 76 74 60 32 39 59 56 46 40 27 17 35 64 81 80 42 23 38 65 69 59 33 359 345 345 348 342 4 47 40 48 39 25 20 18 38 41 36 40 44 76 140 121 112 113 110 109 95 62 20 30 42 43 38 35 32 30 43
110 118 122 123 123 125 133 134 134 142 142 143 142 143 144 142 141 128 125 126 114 111 111 117 106 101 104 91 72 59 62 74 68 57 73 62 53 42 27 7 11 57 93 75 41 32 58 74 73 63 33 353 351 349 347 357 9 8 37 47 45 41 31 26 22 20 29 33 30 36 63 130 150 133 125 116 113 104 82 44 27 24 25 31 22 22 36
115 124 130 126 124 131 145 141 148 153 146 149 150 155 153 146 139 135 139 136 142 145 154 166 169 157 146 135 147 140 115 350 31 38 76 79 67 51 37 14 1 24 94 83 57 69 90 80 68 55 26 357 358 1 359 8 32 51 43 34 36 36 32 30 22 10 354 16 33 21 23 47 84 119 129 113 114 114 117 111 104 87 67 27 17 27 32
137 143 136 132 142 151 159 159 152 146 143 144 142 145 152 148 137 139 142 149 156 171 172 184 173 159 169 172 126 110 112 93 73 98 76 68 55 33 19 8 351 12 80 77 70 63 71 72 65 52 33 4 1 2 1 1 24 47 56 43 34 42 30 23 15 3 349 348 25 32 40 36 36 55 91 120 128 142 139 130 120 121 77 20 347 335 357
129 97 95 119 139 151 159 158 153 152 155 155 153 157 169 169 146 151 157 164 171 170 186 203 184 158 125 139 140 144 149 118 96 97 99 77 62 41 30 22 17 19 66 68 56 52 63 69 67 54 32 7 358 353 356 358 5 37 60 64 52 34 33 20 2 1 359 23 34 35 63 65 53 60 57 66 75 77 82 121 131 101 96 41 5 6 355
91 94 92 90 98 111 121 119 134 149 157 164 162 170 185 126 103 114 129 143 139 146 158 130 100 89 99 89 90 94 90 92 93 83 79 75 60 45 34 28 27 23 32 54 50 47 58 68 71 62 41 15 354 354 354 3 -0 13 33 36 53 37 16 359 2 2 28 46 45 50 38 51 58 61 58 60 68 75 76 79 97 94 72 42 36 51 34
101 99 98 96 87 80 83 87 84 82 92 102 104 106 99 99 100 93 91 90 93 96 91 88 88 92 93 109 102 81 71 65 66 70 66 62 57 50 42 38 49 28 45 59 61 59 57 79 81 71 79 60 16 348 356 355 2 356 27 13 3 357 348 349 11 14 43 33 28 35 36 51 55 56 56 52 47 58 85 94 94 94 102 73 51 44 13
109 109 109 107 108 103 90 85 84 82 81 89 91 89 104 110 109 108 103 95 92 102 90 83 87 92 91 81 78 80 75 76 81 82 77 63 53 47 38 32 34 37 43 55 68 73 83 85 81 75 69 125 47 5 2 356 356 356 17 14 8 345 317 344 31 30 58 66 58 54 50 48 46 64 62 52 53 50 46 74 96 109 96 77 58 32 359
120 115 112 121 115 104 109 115 114 106 94 93 104 108 90 79 94 112 112 101 80 78 91 95 100 101 92 83 90 93 91 92 92 91 86 78 60 38 41 36 26 23 26 10 10 79 95 102 100 51 36 70 64 24 18 17 12 354 -0 13 354 349 334 4 26 33 51 57 55 52 45 60 66 60 69 84 73 59 61 88 101 92 82 81 70 43 32
137 143 150 139 132 137 123 105 101 105 100 90 89 85 82 82 79 69 75 100 107 106 109 123 124 100 91 100 107 115 111 86 70 72 86 95 83 46 29 45 38 27 1 354 355 11 99 110 90 65 62 52 57 40 20 16 5 354 357 8 357 347 331 31 52 73 81 74 76 76 71 54 49 66 31 46 83 70 72 93 109 109 100 79 53 43 41
102 97 99 101 100 105 112 123 132 131 115 102 93 88 93 89 84 83 81 72 81 129 128 107 95 100 106 114 118 112 104 121 145 142 145 148 190 51 58 47 13 17 -0 337 331 316 205 140 125 93 78 75 76 60 38 8 349 6 351 355 339 343 317 342 69 104 121 131 110 89 70 60 43 26 45 60 45 56 69 86 106 103 95 76 55 53 53
104 92 81 86 86 86 78 73 74 88 93 97 103 106 104 115 120 114 98 83 81 85 83 98 103 109 134 154 135 122 118 135 158 161 156 167 203 132 86 64 63 16 343 332 299 316 38 78 84 93 70 88 86 56 42 25 345 9 2 345 334 323 313 312 351 68 128 119 96 102 100 36 33 42 22 93 70 56 50 50 76 114 113 108 95 85 72
98 94 86 85 87 87 82 77 75 70 74 84 89 96 108 113 114 62 88 96 104 108 121 122 129 146 194 193 140 133 139 162 173 173 185 201 176 134 88 98 107 180 346 340 281 33 103 113 131 136 80 101 102 67 26 37 341 348 10 331 319 313 313 338 354 76 109 65 108 100 64 49 41 36 54 76 79 63 57 76 74 109 129 123 105 87 83
103 103 107 104 101 107 119 120 110 103 94 82 77 75 65 66 108 112 127 118 114 148 154 150 178 193 193 130 130 143 155 175 158 152 158 176 174 153 280 278 291 200 168 235 218 126 156 182 196 215 111 122 136 129 292 13 322 341 348 334 323 338 340 -0 34 43 100 121 109 96 82 54 70 93 123 121 115 99 49 36 84 99 106 108 103 111 115
106 111 111 106 93 97 108 120 123 122 115 112 107 97 94 103 111 104 95 118 128 71 83 154 104 66 74 116 135 149 160 160 158 164 166 193 187 169 216 213 209 193 191 210 140 152 177 202 245 231 126 149 154 155 153 329 310 337 330 328 347 359 351 9 20 26 44 84 99 121 140 188 156 124 121 175 106 111 60 317 57 145 139 118 103 107 133
124 123 124 127 132 134 109 115 106 97 111 128 131 148 180 151 242 132 132 120 112 95 70 62 67 58 80 116 121 161 177 170 175 179 181 193 178 197 274 291 258 242 215 168 127 157 190 195 219 133 133 134 145 169 157 218 282 324 321 326 1 7 9 13 22 26 7 10 48 105 110 109 85 68 86 180 276 249 257 294 42 133 135 112 106 100 92
117 119 124 124 134 133 130 124 114 125 124 102 122 120 100 134 138 102 119 136 147 123 136 64 79 128 113 126 153 182 175 175 188 202 190 134 146 172 210 257 266 197 162 145 135 173 187 196 223 184 157 152 154 163 181 191 204 271 297 314 351 30 36 24 21 23 25 18 11 58 133 123 44 38 48 49 22 323 291 277 231 168 192 140 130 119 102
128 123 122 133 139 140 141 129 133 128 117 119 126 121 124 77 62 101 135 145 154 174 157 137 154 128 118 142 150 166 160 185 198 207 176 179 177 170 177 253 232 152 144 140 154 177 204 223 245 215 194 161 153 160 165 197 201 230 240 230 166 36 9 358 20 4 20 43 41 15 14 35 79 75 32 38 354 26 35 317 254 170 208 160 152 163 140
135 143 146 131 128 127 130 144 148 139 150 155 152 150 137 111 88 358 101 140 159 202 156 156 131 131 142 172 194 216 167 191 201 216 219 233 207 168 164 195 170 160 152 160 175 198 201 214 215 236 206 156 172 192 178 183 226 242 200 143 122 115 110 50 21 29 66 81 67 47 40 26 22 34 28 344 314 335 39 33 24 89 177 187 170 175 174
121 116 123 125 125 116 115 113 130 137 154 169 161 144 135 145 160 199 217 204 214 199 153 168 169 171 191 196 164 185 273 186 185 194 216 337 84 115 149 153 165 169 175 179 194 206 209 209 205 215 218 184 180 186 192 216 241 245 197 164 164 163 175 180 0 0 327 247 163 164 155 147 140 136 248 306 311 329 18 30 43 25 316 224 177 177 183
102 132 141 134 124 106 121 150 151 164 161 134 117 125 136 160 183 190 177 264 307 274 206 160 180 198 215 171 156 159 195 177 196 175 79 102 136 183 206 147 157 162 193 195 204 225 243 200 198 199 191 184 182 183 209 240 266 259 216 186 183 185 191 202 217 232 236 226 239 243 237 247 231 197 177 194 205 243 305 349 11 48 16 52 125 185 190
136 103 88 79 85 135 177 158 137 112 101 105 134 164 174 178 181 178 165 184 203 225 211 212 15 333 121 138 148 107 7 322 285 180 225 165 167 192 188 173 170 178 196 194 212 193 126 142 169 173 175 178 175 189 219 254 276 269 222 199 197 198 202 207 216 233 235 234 229 233 238 235 236 232 208 199 216 225 221 242 74 94 66 10 314 175 180
124 112 104 102 100 15 343 75 71 66 72 98 271 254 211 192 172 176 184 161 131 93 33 -0 327 286 265 205 170 165 220 249 281 263 295 70 153 157 178 175 175 186 184 181 181 163 167 152 151 161 164 177 176 190 223 260 272 273 243 218 202 210 232 237 186 199 221 247 241 215 212 204 199 197 192 222 224 217 222 219 221 162 162 84 317 102 142
128 129 139 146 169 211 208 119 101 111 218 279 297 299 205 153 180 191 162 119 137 173 197 214 213 257 296 295 203 179 182 157 274 289 241 160 155 151 158 163 176 177 177 158 152 167 170 165 167 169 176 177 184 208 236 268 272 268 227 190 181 202 238 268 300 352 317 323 258 204 194 200 206 206 224 238 254 242 232 220 220 223 254 136 180 207 161
162 169 156 169 166 114 95 100 148 183 211 206 203 230 232 206 160 133 146 179 205 211 218 219 209 212 215 224 230 231 215 171 154 217 201 141 145 153 174 174 182 178 169 159 161 176 184 171 169 173 175 177 189 205 229 251 266 268 238 200 198 206 209 197 199 229 310 295 299 185 181 187 206 217 231 239 259 267 254 249 241 211 216 262 293 171 179
165 151 155 168 135 137 145 178 231 230 227 206 215 221 193 142 137 189 189 233 229 195 194 191 178 184 194 215 224 217 207 197 200 202 183 156 155 171 174 173 167 164 181 178 183 187 190 187 177 174 174 189 201 208 227 242 260 264 256 234 215 201 201 219 236 239 250 269 279 242 216 211 215 221 231 244 243 235 230 227 240 237 202 184 173 180 193
157 179 182 156 160 179 171 187 197 178 133 121 118 83 69 79 92 8 332 166 116 107 82 310 235 185 146 195 280 256 214 178 144 129 138 128 123 149 152 156 167 178 193 186 158 172 179 186 191 183 186 195 207 218 230 240 243 252 247 232 208 200 214 227 230 242 241 216 218 244 247 225 212 219 232 236 242 240 225 216 222 237 238 214 181 181 178
164 183 168 157 195 203 191 183 171 178 174 166 137 98 104 110 82 36 12 326 110 140 158 87 357 304 127 115 104 53 334 220 126 124 113 95 115 150 157 149 154 186 199 198 186 177 185 190 186 187 190 201 210 222 233 240 245 251 255 238 204 193 195 206 205 211 238 259 286 322 311 297 262 219 183 179 169 168 196 203 203 213 207 205 204 201 203